Regional Weather Roundup
Issued by NWS Tiyan, Guam

Home | Current Version | Previous Version | Text Only | Print | Product List | Glossary On
Versions: 1 2 3 4 5 6 7 8 9 10 11 12 13 14 15 16 17 18 19 20 21 22 23 24 25 26 27
000
ASGM40 PGUM 200012
RWRGUM
WEATHER ROUNDUP FOR THE MARIANAS
NATIONAL WEATHER SERVICE TIYAN GU
1000 AM CHST MON NOV 20 2017

GUZ001>004-200100-
MARIANA ISLANDS-

CITY           SKY/WX    TMP DP  RH WIND       PRES   REMARKS
GUAM AIRPORT   MOSUNNY   88  75  66 E18       29.86F HX  97
ANDERSEN AFB   MOSUNNY   84  73  70 E15       29.86F HX  91
ROTA AIRPORT   MOSUNNY   82  73  74 E16       29.87S
TINIAN AP      NOT AVBL
SAIPAN AP      MOSUNNY   88  73  62 NE16      29.86F HX  96

$$





USA.gov is the U.S. government's official web portal to all federal, state and local government web resources and services.